Location: Greene
(44.1583°N, 70.1456°W)
Time: 12:43:24
(UTC-05:00)

Tiangong 1 - Visible Passes

Search period start: 19 November 2017 00:00
Search period end: 29 November 2017 00:00
Orbit: 285 x 309 km, 42.8° (Epoch: 19 November)

Date Brightness Start Highest point End Pass type
(mag) Time Alt. Az. Time Alt. Az. Time Alt. Az.
24 Nov 3.3 17:45:03 10° S 17:45:40 12° S 17:45:40 12° S visible
25 Nov 2.8 17:50:39 10° SSW 17:52:01 19° S 17:52:01 19° S visible
26 Nov 2.5 17:56:39 10° SW 17:58:12 26° SSW 17:58:12 26° SSW visible
27 Nov 2.6 18:02:46 10° WSW 18:04:14 28° SW 18:04:14 28° SW visible
28 Nov 2.3 16:34:45 10° SW 16:36:57 24° SSE 16:39:09 10° E visible
28 Nov 3.0 18:08:53 10° WSW 18:10:09 24° WSW 18:10:09 24° WSW visible
